Temp
7 8 8 8 8 8 8 8 8 9 10 11 11 11 11 11 13 13 14 21 24 24 24 24 24 24 25 26 26 27 22 22 25 27 30 33 33 34 36 35 35 34 34 34 35
7 7 8 8 8 8 8 8 8 8 8 9 11 12 13 12 12 12 22 22 23 24 22 22 23 26 25 25 25 25 22 24 27 28 29 31 32 33 34 33 33 34 33 34 35
7 7 7 7 7 8 8 8 8 8 8 8 9 11 12 11 12 19 23 23 21 23 22 24 24 25 25 26 26 26 25 27 28 30 30 31 32 34 33 32 33 32 33 33 33
7 7 7 7 7 7 7 8 8 8 8 8 9 9 10 10 17 22 21 23 23 22 22 23 23 22 23 24 26 25 27 28 28 29 30 30 32 32 32 31 32 33 33 33 32
8 7 7 8 9 9 9 9 9 9 9 8 8 8 8 11 13 19 20 21 22 21 22 22 21 22 21 24 26 26 27 28 29 29 30 31 31 31 32 33 33 33 33 31 30
8 7 8 8 9 9 10 10 10 10 10 8 8 8 8 8 15 18 20 20 22 22 22 22 21 22 22 23 24 27 27 28 29 29 30 30 31 31 32 32 32 33 32 31 30
8 8 9 10 10 10 10 11 11 11 10 8 8 8 9 10 16 18 18 18 19 21 23 24 24 23 23 23 25 26 26 28 28 29 29 31 30 31 32 32 32 32 32 31 31
7 7 8 9 10 10 11 11 13 13 10 11 8 9 9 14 15 15 18 18 20 21 21 22 23 22 23 23 25 24 25 24 27 29 30 29 28 31 31 32 30 32 33 32 30
7 7 8 8 7 8 10 11 13 14 12 11 9 10 11 17 16 18 17 19 20 21 22 23 23 21 22 21 21 23 22 23 25 28 29 28 28 30 31 31 31 31 32 32 31
7 8 8 9 8 10 10 13 16 14 12 11 12 12 14 17 21 21 20 20 21 21 21 21 20 20 20 19 20 22 23 24 25 27 29 28 28 30 31 31 31 31 31 31 29
8 8 7 7 8 10 9 11 15 13 14 15 16 15 16 19 20 21 21 22 21 20 17 19 18 18 20 21 22 24 24 25 26 28 28 28 28 29 30 29 29 29 29 29 30
8 9 10 11 11 12 12 10 16 15 13 16 16 17 18 18 18 19 20 19 19 17 19 18 18 20 22 22 22 23 23 24 26 28 27 28 28 29 30 30 30 30 27 27 27
8 9 10 11 11 13 13 15 16 15 12 14 17 17 17 18 18 18 20 20 19 18 18 17 19 22 22 22 22 22 23 23 24 26 27 27 26 27 28 29 29 29 28 27 26
8 9 10 10 12 13 15 15 15 15 10 13 16 18 19 18 17 20 22 20 19 18 18 18 21 21 21 22 23 21 25 25 25 25 23 26 24 26 28 29 30 30 29 30 29
8 9 10 10 10 11 14 14 14 14 9 14 15 17 19 19 19 19 22 21 19 19 19 18 19 20 21 22 24 23 25 25 25 24 24 25 23 27 26 27 27 28 27 26 26
8 9 9 11 10 13 14 14 13 10 10 13 17 18 18 19 19 20 21 21 21 20 19 19 21 20 21 23 24 24 24 24 24 23 22 25 25 26 26 27 28 28 28 29 28
8 10 9 10 12 14 14 13 10 9 15 16 17 17 17 15 17 19 19 19 17 17 17 19 19 21 22 20 22 22 21 19 20 21 21 25 24 26 26 27 29 28 28 28 25
7 12 13 11 13 13 13 10 10 13 14 15 17 16 15 15 13 14 16 16 19 19 17 17 16 19 21 20 20 20 21 20 18 20 22 25 24 26 28 29 28 29 28 25 23
8 11 13 14 14 14 10 9 10 11 11 14 16 15 15 16 12 13 14 14 17 15 15 14 16 19 19 20 21 21 20 23 21 23 23 24 26 27 29 29 28 29 27 24 23
6 9 13 14 14 14 10 11 13 12 11 13 12 15 13 15 14 13 12 14 16 16 17 16 13 17 18 19 20 21 23 21 22 20 20 24 25 25 27 28 29 27 26 24 23
8 11 15 15 14 10 8 11 14 15 14 13 9 12 13 14 13 13 14 16 15 14 14 15 14 15 17 17 17 19 20 21 22 21 21 21 24 27 28 29 27 26 26 25 24
10 11 15 15 11 10 9 13 14 15 15 15 15 14 13 14 13 14 12 12 14 15 14 12 11 12 15 17 19 18 17 21 20 21 23 22 24 28 28 27 27 26 26 25 24
8 12 16 15 9 9 12 14 14 14 12 14 14 14 13 12 11 13 12 14 13 14 13 12 11 11 14 17 19 18 20 22 21 21 22 23 24 29 28 29 27 27 26 25 25
9 11 13 12 12 11 11 12 13 15 15 15 14 14 13 11 12 12 11 15 14 12 13 11 11 11 12 15 14 13 15 16 17 21 22 24 26 26 27 27 27 27 26 25 25
9 11 11 9 9 11 12 11 11 12 14 13 13 13 13 11 12 13 14 14 15 12 12 10 10 12 13 15 15 14 14 15 15 19 22 25 26 28 26 26 27 26 26 26 25
10 9 10 9 11 12 12 11 11 10 11 11 11 12 10 9 11 11 13 13 13 13 12 10 11 12 12 15 15 15 15 15 16 16 21 25 27 27 27 26 27 27 27 26 26
9 9 8 9 10 10 10 12 12 12 11 13 13 11 10 11 12 11 13 13 13 13 13 13 11 11 12 15 14 14 16 16 18 18 20 25 27 26 25 25 23 25 27 27 26
Height
826 823 820 818 817 815 812 806 802 800 798 794 791 788 785 781 776 775 770 760 763 764 767 767 764 766 769 769 768 767 795 799 786 773 755 727 735 721 714 721 720 718 724 722 721
825 822 820 817 813 810 807 806 804 801 798 795 789 785 782 779 772 764 751 752 756 762 764 763 762 763 768 766 765 770 787 777 755 753 753 736 736 728 728 729 731 725 718 723 717
826 823 820 817 814 811 807 804 801 799 797 793 789 786 784 781 773 748 745 745 746 753 757 759 759 761 765 760 759 759 763 754 750 745 740 739 733 723 728 736 728 730 723 717 715
824 821 818 815 812 809 806 803 799 796 793 792 788 786 782 782 773 742 743 746 741 745 755 756 758 764 768 762 752 763 746 746 745 741 740 740 729 728 725 726 715 714 714 713 715
824 820 816 812 807 804 801 798 795 793 791 789 787 786 784 776 759 746 746 747 744 746 751 752 757 762 766 755 752 748 744 741 736 736 734 730 730 725 720 712 708 708 710 711 709
823 819 815 811 806 801 797 793 790 788 786 785 784 783 783 777 750 744 746 746 746 745 746 748 751 753 755 752 752 740 740 735 733 732 729 733 725 720 715 709 707 707 707 706 704
821 817 812 808 803 798 794 789 784 781 780 780 781 781 778 760 742 739 739 739 739 740 740 740 742 744 744 751 739 740 747 735 726 725 728 726 723 718 708 706 705 705 702 698 696
820 816 811 806 801 795 789 783 777 775 774 773 775 777 764 740 738 738 734 734 734 734 737 736 736 739 742 739 739 749 747 751 726 721 716 731 708 710 704 704 705 700 696 693 691
818 813 808 802 798 792 786 777 769 768 768 770 772 771 756 734 733 726 730 733 732 732 734 735 734 740 742 750 756 742 755 745 731 713 719 725 710 704 698 698 697 694 689 686 682
816 811 805 798 793 788 781 772 763 762 764 767 768 769 745 729 722 722 725 728 728 729 733 734 738 745 746 751 749 743 744 727 721 721 715 720 714 699 692 693 690 685 680 677 678
813 808 801 795 789 784 779 772 764 765 765 763 756 749 731 726 722 722 722 722 724 730 742 737 748 739 710 725 729 722 722 722 716 712 718 714 710 700 686 688 688 682 679 675 668
810 804 798 791 786 782 781 779 773 772 760 745 744 734 732 730 729 722 723 727 728 738 734 741 732 709 722 722 730 730 728 719 709 703 709 705 706 691 678 678 675 673 673 670 667
809 804 797 790 785 782 779 776 772 767 765 736 726 721 716 725 723 721 719 719 725 732 732 735 715 713 718 723 725 723 722 721 723 714 701 706 711 697 679 671 668 664 663 661 660
808 802 797 790 786 782 778 776 772 768 776 750 728 719 710 714 720 706 704 711 718 726 728 723 710 709 714 716 714 721 708 711 715 723 730 709 733 696 682 674 667 659 657 651 649
805 800 795 792 789 785 780 775 771 770 786 752 737 723 712 713 711 703 698 701 712 716 720 710 710 711 712 708 704 702 701 708 708 718 720 713 728 677 679 681 672 661 655 649 642
803 798 794 790 787 781 778 774 772 780 776 753 730 721 716 710 709 704 695 695 696 707 705 705 700 706 702 698 695 696 703 707 708 717 738 702 712 669 684 675 663 653 646 638 634
800 794 792 790 785 781 778 773 783 786 754 744 734 728 725 728 716 707 705 707 713 717 714 704 703 696 695 705 696 697 715 738 741 736 717 693 701 673 663 654 645 647 641 635 630
797 790 787 785 783 780 776 782 789 765 756 745 735 735 738 735 736 728 718 714 700 702 707 712 720 700 691 698 706 702 705 726 740 725 707 690 695 668 637 636 633 631 632 635 637
794 788 784 782 782 780 782 794 786 776 777 753 736 737 737 733 745 737 732 724 708 714 721 724 713 695 698 693 691 696 704 681 707 699 707 691 669 650 634 633 631 629 632 638 639
795 790 780 780 780 779 787 785 771 773 769 755 753 739 742 735 737 737 738 724 718 712 712 718 725 703 695 692 681 684 678 704 698 725 727 687 679 670 641 630 623 630 633 638 640
794 789 777 777 778 784 798 780 765 761 758 754 767 750 744 737 741 741 733 723 723 724 720 719 723 710 704 704 700 691 688 691 686 697 709 710 686 631 625 616 621 627 627 633 639
796 791 777 776 786 785 790 772 767 759 752 747 744 742 743 735 735 733 742 744 728 724 726 728 732 721 710 693 689 690 694 682 700 694 685 690 673 616 609 608 608 618 623 629 634
803 787 775 776 793 790 778 771 766 759 762 749 748 742 741 746 747 735 736 726 729 725 723 727 734 731 703 685 678 685 673 667 673 680 683 689 669 616 615 607 608 617 623 630 637
807 794 781 780 780 782 778 773 765 756 751 747 748 743 741 746 738 736 741 722 721 731 726 732 736 730 725 699 710 708 698 690 689 680 671 664 647 639 627 618 616 620 624 631 638
808 797 797 798 792 785 779 776 772 762 753 751 747 745 744 746 736 731 725 720 717 726 729 735 734 724 711 698 700 704 700 695 698 678 663 653 647 631 622 619 617 619 626 633 640
810 811 803 801 789 781 773 776 771 768 764 756 754 744 752 753 738 730 723 723 723 723 726 736 726 718 706 692 696 694 689 690 686 677 660 640 637 621 614 611 619 621 625 634 640
814 812 810 797 791 786 781 770 765 760 759 751 744 745 747 735 731 728 714 712 714 716 716 717 721 722 705 689 695 699 679 675 670 666 656 643 623 625 632 631 628 626 626 633 638
Wind_Speed
17 17 18 17 17 17 18 19 20 21 20 20 21 22 22 24 28 19 10 19 11 20 12 9 7 14 17 8 12 7 3 5 11 11 16 17 12 10 3 4 4 4 4 8 21
18 18 18 19 20 21 20 20 20 19 20 21 22 22 23 25 28 16 33 32 27 20 16 19 11 13 11 12 7 13 6 10 12 15 17 14 10 18 15 7 12 13 19 32 30
17 18 19 19 19 20 20 21 20 20 20 20 21 22 22 23 8 7 4 11 30 24 25 18 19 15 16 13 15 18 22 16 16 19 21 20 20 14 16 8 6 5 10 14 13
20 20 21 21 21 21 21 20 20 19 19 20 20 21 23 10 6 4 11 15 7 29 24 20 7 10 8 19 16 18 20 20 15 20 23 23 20 19 17 11 8 10 7 4 8
21 22 24 26 26 25 24 24 23 23 22 19 19 17 12 6 10 23 26 12 3 17 21 11 11 6 12 8 16 24 21 18 19 20 23 26 26 22 22 17 11 10 13 11 9
21 22 24 25 26 27 28 29 29 27 25 22 18 14 8 16 15 27 24 19 17 18 20 17 7 10 10 11 19 15 17 21 17 22 22 24 26 21 19 11 15 16 18 12 10
22 24 25 26 26 27 28 30 32 32 29 21 15 12 13 21 22 23 26 28 24 18 11 21 26 12 6 11 18 18 20 19 23 22 26 21 28 29 19 16 22 16 15 11 11
22 23 26 26 27 29 32 35 35 31 28 18 12 10 8 26 23 30 26 25 22 22 23 24 22 7 5 8 16 18 15 21 22 22 23 12 40 20 15 20 15 21 23 17 11
25 26 29 30 30 31 34 37 35 27 19 13 6 8 9 18 15 24 25 17 18 22 23 21 17 7 8 6 8 17 21 22 24 22 18 14 33 17 16 19 22 25 24 20 18
27 30 32 34 33 32 33 32 22 13 8 7 11 7 8 8 8 10 13 18 8 9 9 6 5 10 10 11 18 12 21 24 29 11 18 23 31 29 29 24 24 22 19 18 13
30 33 37 35 33 27 27 18 9 4 4 11 19 15 32 22 33 6 10 14 8 6 7 8 8 21 36 24 15 15 18 21 20 18 15 23 25 25 21 12 14 14 14 15 14
33 35 37 32 28 18 11 4 14 14 16 23 23 28 33 35 25 21 29 16 6 8 8 10 22 26 17 16 18 19 23 24 15 12 13 20 18 22 23 14 17 22 11 11 8
32 34 32 27 22 12 14 20 26 24 9 26 18 22 26 22 23 23 20 16 15 13 13 16 17 17 21 19 19 25 26 20 19 10 17 15 15 19 17 15 8 10 9 9 12
31 32 26 27 5 22 12 26 25 22 4 10 24 10 10 17 22 26 28 19 16 18 15 16 19 22 19 22 21 24 15 21 18 11 16 10 16 21 13 17 19 18 14 19 14
32 30 23 17 13 9 22 26 19 6 4 17 12 8 12 10 10 10 18 14 17 16 11 23 14 9 19 22 20 24 15 18 13 16 17 19 9 18 9 8 9 10 11 11 13
33 27 22 9 10 13 21 19 9 3 4 9 5 11 11 9 8 12 7 10 12 15 14 17 15 17 17 17 19 17 16 18 16 12 11 19 15 25 14 11 9 9 10 12 11
36 24 16 15 5 18 18 9 2 2 14 12 19 18 15 15 18 17 17 13 6 6 11 12 14 18 19 18 17 16 12 6 10 10 17 14 12 18 7 13 22 15 13 6 8
39 18 13 14 14 12 17 4 2 6 14 16 19 11 10 14 14 17 17 10 13 11 10 9 9 9 10 17 11 13 15 9 13 12 17 13 8 11 19 12 10 10 8 8 11
34 13 7 2 2 10 4 3 1 9 12 17 19 9 11 12 1 7 12 10 8 5 2 5 8 12 17 16 13 19 16 20 17 10 8 5 13 21 26 20 11 14 10 11 14
26 9 10 2 6 5 3 4 9 13 17 11 11 10 16 12 9 13 6 7 11 4 2 1 7 8 16 14 14 18 11 7 11 13 13 7 13 12 12 19 16 8 15 13 14
5 3 8 2 3 3 0 4 19 12 20 5 4 18 11 11 4 8 8 11 9 10 10 7 4 9 10 3 8 7 16 11 9 7 11 6 10 11 19 15 11 12 17 17 16
8 3 6 1 1 2 2 16 16 19 19 14 12 12 12 16 13 9 10 9 9 7 6 3 3 6 13 18 17 18 21 16 9 19 9 4 9 8 6 7 10 14 17 16 18
6 4 7 2 2 2 7 14 16 19 12 11 14 14 11 9 7 5 4 10 11 6 1 4 3 5 8 6 8 7 12 15 7 5 20 10 13 4 11 7 10 19 18 17 17
4 4 3 4 5 9 11 11 15 14 14 14 13 14 7 4 8 8 7 8 8 11 6 5 3 6 8 10 8 11 20 16 11 9 8 13 19 10 13 8 17 18 18 19 17
3 3 4 5 9 14 10 11 18 18 10 13 5 12 16 11 16 13 14 14 2 6 4 3 4 10 15 18 12 16 19 19 16 15 11 16 8 12 6 9 15 17 19 18 17
3 3 3 8 11 15 8 7 14 12 15 8 15 14 11 15 13 16 13 10 10 9 4 4 3 10 13 14 11 17 20 19 20 22 17 20 19 6 1 9 11 16 18 17 18
9 8 5 4 7 10 10 18 18 14 8 17 16 9 12 15 15 21 15 13 12 11 9 8 5 3 5 9 8 8 16 18 14 18 21 18 17 8 8 11 9 9 15 17 18
Wind_Direction
359 356 353 350 347 343 338 339 336 333 332 332 329 328 327 325 316 309 233 240 240 244 256 264 220 222 227 233 237 205 224 222 249 254 264 299 310 326 355 17 343 353 83 313 319
357 354 350 346 343 341 338 333 328 327 325 325 326 325 325 329 320 260 272 264 250 229 256 234 255 223 224 217 210 216 221 219 232 261 278 288 306 303 306 31 314 292 351 302 298
353 351 347 342 338 334 332 329 325 321 319 320 320 321 320 334 290 249 338 292 242 229 239 234 234 249 234 233 222 230 238 244 250 260 268 285 294 291 299 298 238 247 234 244 237
354 349 343 339 334 330 327 323 320 318 315 314 315 317 320 325 255 102 39 358 324 223 233 233 251 256 257 228 232 243 239 242 249 254 271 275 283 285 286 279 284 297 271 245 264
349 343 340 338 337 334 330 326 323 319 314 310 308 312 328 240 240 256 302 295 360 187 216 218 223 231 249 263 231 236 242 245 251 245 254 267 271 273 274 286 284 291 297 279 266
344 341 337 335 333 331 329 325 321 318 313 307 299 295 281 261 259 260 277 285 243 194 211 218 225 222 282 257 252 262 248 252 245 249 254 258 266 270 268 273 288 285 282 272 259
345 341 339 337 334 332 328 322 317 313 309 304 292 269 256 250 257 269 277 285 288 286 255 221 218 213 168 257 264 268 271 270 249 247 248 261 265 256 270 274 269 267 263 263 268
340 337 336 334 330 328 326 320 312 305 304 301 296 244 252 263 262 268 276 275 273 271 275 285 293 285 243 265 263 268 275 258 255 254 251 249 261 261 259 257 268 285 277 270 255
341 339 338 331 326 322 321 317 309 307 302 295 273 205 263 287 222 250 240 255 267 266 261 255 260 252 293 254 266 233 239 251 256 238 252 228 267 270 272 264 257 257 258 261 255
339 340 336 330 326 325 323 323 336 314 315 243 253 262 248 253 265 253 209 221 240 237 269 249 235 234 234 227 221 216 223 235 247 243 233 241 252 264 262 261 259 259 251 250 246
341 340 338 332 329 331 331 340 353 41 232 287 284 226 289 281 308 274 216 225 196 245 218 234 220 223 221 220 238 261 233 246 247 243 256 254 259 266 266 250 262 259 261 246 242
342 343 340 336 337 339 325 261 344 312 293 274 270 267 259 271 282 287 289 281 256 226 229 234 231 232 241 238 240 248 262 259 265 253 244 247 256 252 253 257 251 250 254 254 261
342 343 341 333 336 342 313 344 337 344 306 298 272 251 251 245 252 255 247 249 250 252 240 240 250 231 237 231 235 230 238 252 259 293 282 295 288 282 282 277 273 259 256 231 218
340 343 339 339 360 330 344 340 339 344 305 319 345 19 333 228 261 256 254 224 225 237 241 257 252 244 249 226 227 243 236 246 261 252 255 247 273 262 267 268 258 259 254 259 260
339 342 334 335 286 310 332 340 343 4 309 328 311 282 314 24 355 305 266 225 226 225 214 243 273 261 251 247 229 251 229 258 254 243 261 258 260 263 203 248 282 267 260 252 243
336 337 329 338 296 317 336 329 347 57 321 308 290 327 332 342 326 298 288 208 219 230 252 255 245 253 264 272 246 266 241 246 257 260 269 244 228 261 242 254 250 259 259 259 257
333 327 307 295 261 340 337 329 12 42 324 332 355 6 360 358 325 324 306 226 225 238 242 262 257 244 255 269 270 250 236 248 234 231 239 221 240 249 246 227 242 244 256 267 109
334 317 284 259 294 339 316 353 281 298 338 322 332 4 4 20 341 330 327 308 299 297 263 239 274 272 274 235 258 253 225 215 217 214 250 256 248 252 244 240 240 237 231 125 105
333 330 269 268 287 338 27 356 119 296 329 313 327 342 336 16 113 335 338 346 1 64 34 10 264 301 316 308 246 252 250 224 247 276 247 240 243 263 259 256 240 240 157 127 122
330 294 264 122 322 288 34 266 319 8 319 349 309 333 331 344 352 356 325 319 326 73 50 295 290 277 294 318 297 232 253 236 224 233 256 233 258 256 288 236 237 177 136 129 123
320 256 134 126 231 51 57 261 320 2 309 278 29 314 330 329 331 285 296 308 14 330 352 344 253 273 304 246 272 283 240 247 236 202 235 246 265 256 238 222 216 160 143 139 135
320 302 151 214 277 210 304 317 332 316 336 345 335 337 325 330 329 352 352 297 241 271 297 93 286 293 271 273 276 280 286 226 233 222 246 215 260 294 98 113 147 149 143 137 134
311 267 230 225 305 327 291 328 319 331 311 322 339 331 9 360 332 332 298 262 262 260 308 20 323 310 297 251 244 252 280 232 227 224 226 240 243 278 282 108 110 132 132 130 134
293 322 352 350 10 325 333 308 320 316 329 345 326 323 320 285 291 279 249 270 187 284 116 112 253 235 272 300 322 298 316 326 323 227 222 239 251 285 272 128 132 134 136 137 137
245 347 31 323 323 308 318 292 321 328 340 322 303 318 325 310 306 301 317 321 7 217 130 149 265 256 277 283 287 271 282 297 310 292 224 238 254 228 193 123 135 132 132 136 138
339 343 343 292 303 310 319 321 310 314 326 312 316 337 337 294 289 308 305 296 295 197 207 177 264 295 292 279 221 271 280 283 278 279 281 241 244 298 20 103 129 140 142 139 140
360 335 294 278 295 323 323 330 323 331 298 315 313 327 297 292 300 292 278 269 266 268 270 252 205 320 263 109 146 268 256 263 261 273 269 237 223 137 68 38 68 119 133 142 145